Regional Weather Roundup
Issued by NWS

Home | Current Version | Previous Version | Graphics & Text | Print | Product List | Glossary Off
Versions: 1 2 3 4 5 6 7 8 9 10 11 12 13 14 15 16 17 18 19 20 21 22 23 24 25 26 27 28 29 30 31 32 33 34 35 36 37 38 39 40 41 42 43 44 45 46 47 48 49 50

000
ASUS43 KTOP 261959
RWRKS

WEATHER ROUNDUP FOR KANSAS
NATIONAL WEATHER SERVICE GOODLAND KS
300 PM CDT THU MAY 26 2016

NOTE:  "FAIR" INDICATES FEW OR NO CLOUDS BELOW 12,000 FEET WITH NO
SIGNIFICANT WEATHER AND/OR OBSTRUCTIONS TO VISIBILITY.

KSZ001>006-013>018-027>032-041>047-262100-
NORTHWEST KANSAS

CITY           SKY/WX    TMP DP  RH WIND       PRES   REMARKS
HAYS           PTSUNNY   66  63  88 SE8       29.74R
HILL CITY      PTSUNNY   75  67  76 E8        29.75F
RUSSELL        PTSUNNY   77  69  76 S12       29.73R
$$

KSZ061>065-074>080-084>089-262100-
SOUTHWEST KANSAS

CITY           SKY/WX    TMP DP  RH WIND       PRES   REMARKS
DODGE CITY     FAIR      81  54  39 VRB3      29.69F
ELKHART          N/A     83  44  25 S12         N/A
GARDEN CITY    FAIR      82  54  37 SE9       29.67F
GREAT BEND     PTSUNNY   75  61  60 S14G31    29.71S THUNDER
LIBERAL        FAIR      88  45  22 S17G25    29.69F
$$

KSZ066>073-081>083-090>101-262100-
SOUTHEAST KANSAS

CITY           SKY/WX    TMP DP  RH WIND       PRES   REMARKS
CHANUTE        PTSUNNY   83  72  69 S17G26    29.80F
COFFEYVILLE    PTSUNNY   82  73  74 S20G30    29.81F
HUTCHINSON     FAIR      69  64  84 CALM      29.72F
MEDICINE LODGE   N/A     82  64  54 S21G32    29.67F
NEWTON         PTSUNNY   75  63  64 N9G16     29.79R THUNDER
PARSONS        FAIR      85  74  69 S15G25    29.81F
WICHITA INTL   PTSUNNY   78  71  79 E8        29.72F
WICHITA JABRA  FAIR      75  69  81 E7        29.74F
WINFIELD       FAIR      86  73  65 S20G26    29.74F
$$

KSZ007>012-019>026-033>040-048>060-102>105-262100-
NORTHEAST KANSAS

CITY           SKY/WX    TMP DP  RH WIND       PRES   REMARKS
CONCORDIA      PTSUNNY   80  71  74 VRB7      29.67F
EMPORIA        FAIR      78  71  79 S13       29.76F THUNDER
LAWRENCE       CLOUDY    80  73  79 SE13      29.72F THUNDER
MANHATTAN      TSTM      77  67  71 S7        29.71F
OLATHE IND     PTSUNNY   82  73  74 SE16G23   29.79F
OLATHE EXE     PTSUNNY   80  71  74 SE13G25   29.79F
SALINA         FAIR      77  64  64 SE18G25   29.71F THUNDER
TOPEKA BILLARD TSTM      67  64  90 NE12G26   29.77R VSB 3/4
TOPEKA FORBES  CLOUDY    71  65  81 NE15      29.75R
$$



USA.gov is the U.S. government's official web portal to all federal, state and local government web resources and services.